Location: Newark
(43.4306°N, 0.3089°E)
Time: 08:35:06
(UTC+00:00)

S-56A Canister/Altair - Pass Details

Date: 19 August 2019
Orbit: 633 x 2499 km, 38.9° (Epoch: 21 September)

Event Time Altitude Azimuth Distance (km) Brightness Sun altitude
Rises 02:20:10 0° 272° (W) 3,120 - -25.5°
Reaches altitude 10° 02:22:24 10° 264° (W) 2,324 - -25.3°
Maximum altitude 02:27:22 39° 196° (SSW) 1,404 - -24.7°
Exits shadow 02:29:00 33° 165° (SSE) 1,631 8.8 -24.5°
Drops below altitude 10° 02:34:18 10° 131° (SE) 3,257 10.7 -23.9°
Sets 02:38:01 0° 125° (SE) 4,551 11.6 -23.4°
